Tracking 29892 objects as of 21-Nov-2024
HD Live streaming from Space Station
objects crossing your sky now

STARLINK-5813

Track STARLINK-5813 now!
10-day predictions
STARLINK-5813 is classified as:


NORAD ID: 55790
Int'l Code: 2023-028BB
Perigee: 577.0 km
Apogee: 581.3 km
Inclination: 70.0 °
Period: 96.1 minutes
Semi major axis: 6950 km
RCS: Unknown
Launch date: March 3, 2023
Source: United States (US)
Launch site: AIR FORCE WESTERN TEST RANGE (AFWTR)
Your satellite tracking list
Your tracking list is empty




NASA's NSSDC Master Catalog

Two Line Element Set (TLE):
1 55790U 23028BB  24325.94050436  .00005897  00000-0  50144-3 0  9994
2 55790  70.0001 318.9244 0003131 272.2421  87.8380 14.98342387 96058
Source of the keplerian elements: AFSPC